sat.trackr.live / text

‹ back to catalog

STARLINK-32140

NORAD 61511 · 2024-183C

PAYLOAD ACTIVE UNKNOWN

§ Identity

Operator
Country
US
Launch date
2024-10-15
Launch site
AFETR
Launch vehicle
Mass (kg)
RCS (m²)

Purposes: comms

External: N2YO · Heavens-Above · Gunter

§ Orbital elements

Epoch: 2026-09-21T10:04:06.318048Z

Period
94.01 min
Inclination
53.1598°
Eccentricity
0.0000971
Mean motion
15.31702285 rev/d
Perigee alt
470.1 km
Apogee alt
471.4 km
Semi-major
6,848.9 km
B*
4.7428e-7
RAAN
311.6004°
Arg perigee
68.6979°
Mean anomaly
291.4126°
Rev number
10,964

§ Raw data

STARLINK-321401 61511U 24183C   26264.41951757 -.00000350  00000+0  47428-6 0  99902 61511  53.1598 311.6004 0000971  68.6979 291.4126 15.31702285109643

JSON: /api/v1/satellites/61511 · /tle

For live sub-satellite position, see the globe view (requires WebGL).

§ Visibility from observer

Set your observer location to see the next 7 days of passes ≥ 10°. The values pass through the URL so the page stays shareable.

No JS? Fill the form by hand. The geolocation button needs JavaScript.